Regional Weather Roundup
Issued by NWS

Home | Current Version | Previous Version | Text Only | Print | Product List | Glossary Off
Versions: 1 2 3 4 5 6 7 8 9 10 11 12 13 14 15 16 17 18 19 20 21 22 23 24 25 26 27 28 29 30 31 32 33 34 35 36 37 38 39 40 41 42 43 44 45 46 47 48 49 50

000
ASUS45 KCYS 190110
RWRWY

WYOMING REGIONAL WEATHER ROUNDUP
NATIONAL WEATHER SERVICE CHEYENNE WY
700 PM MDT MON SEP 18 2017

NOTE:  "FAIR" INDICATES FEW OR NO CLOUDS BELOW 12,000 FEET
WITH NO SIGNIFICANT WEATHER AND/OR OBSTRUCTIONS TO VISIBILITY.

WYZ001-190200-
YELLOWSTONE NATIONAL PARK

CITY           SKY/WX    TMP DP  RH WIND       PRES   REMARKS
LK YELLOWSTONE   N/A     44  39  82 NW3       29.91F
W YELLOWSTONE  NOT AVBL

$$
WYZ002>013-054>058-071-098>099-190200-
NORTHERN WYOMING

CITY           SKY/WX    TMP DP  RH WIND       PRES   REMARKS
JACKSON        NOT AVBL
CODY           MOCLDY    69  30  23 W13G20    29.71R
GREYBULL       FAIR      72  36  26 S12       29.62S
WORLAND        FAIR      65  43  44 SE3       29.66F
SHERIDAN       FAIR      72  35  25 SE3       29.65S
BUFFALO        FAIR      69  29  22 SE15      29.72F
GILLETTE       FAIR      66  47  50 S7        29.70F
HULETT         FAIR      64  37  36 SE7       29.73F
NEWCASTLE      FAIR      70  32  24 E7        29.75S

$$
WYZ014>020-022>026-101>103-190200-
CENTRAL WYOMING

CITY           SKY/WX    TMP DP  RH WIND       PRES   REMARKS
BIG PINEY      CLOUDY    63  32  31 W16       29.87F
PINEDALE       CLOUDY    61  30  31 SW9       29.87F
DUBOIS         LGT RAIN  52  34  50 W13G18    29.87S
LANDER         NOT AVBL
RIVERTON       FAIR      69  30  23 SW12      29.75F
CASPER         FAIR      71  29  21 SW23      29.79F
DOUGLAS        FAIR      75  27  17 SW15      29.81F

$$
WYZ021-027>030-104>119-190200-
SOUTHERN WYOMING

CITY           SKY/WX    TMP DP  RH WIND       PRES   REMARKS
EVANSTON       FAIR      65  29  25 SW29G38   29.88F
KEMMERER         N/A     63  28  27 SW18G25   29.90F
FORT BRIDGER   FAIR      67  31  26 SW17G26   29.91F
ROCK SPRINGS   FAIR      64  28  25 SW25G31   29.90F
DIXON          FAIR      68  29  23 SW16G22   29.98S
RAWLINS        FAIR      66  29  24 SW22G31   29.93F
SARATOGA       FAIR      64  28  25 SW12      29.98S
LARAMIE        FAIR      63  25  23 SW12      29.99S
CHEYENNE       FAIR      69  29  22 S10       29.94F
TORRINGTON     FAIR      71  43  36 SE13      29.80
PINE BLUFFS    FAIR      66  36  32 S7        29.90S

$$



USA.gov is the U.S. government's official web portal to all federal, state and local government web resources and services.